Location: Burtsch�tz
(51.0528°N, 12.1764°E)
Time: 07:57:37
(UTC+00:00)

COSMOS 2455 - Pass Details

Date: 29 October 2020
Orbit: 899 x 911 km, 67.1° (Epoch: 01 December)

Event Time Altitude Azimuth Distance (km) Brightness Sun altitude
Rises 18:11:18 0° 316° (NW) 3,551 6.7 -22.6°
Reaches altitude 10° 18:14:24 10° 331° (NNW) 2,608 5.7 -23.1°
Maximum altitude 18:19:07 23° 23° (NNE) 1,851 4.3 -23.9°
Enters shadow 18:19:44 22° 32° (NNE) 1,866 4.2 -24.0°
